Del Rio, TX

9:53 AM CDT on July 20, 2017 (GMT -0500)
Del Rio International

Weather History for KDRT - September, 2012

Change the Weather History Date:

Monday, September 3, 2012

  Actual Average Record
Temperature  
Mean Temperature 92 °F 84 °F  
Max Temperature 103 °F 94 °F 106 °F (2000)
Min Temperature 80 °F 73 °F 58 °F (1974)
Degree Days  
Heating Degree Days 0 0  
Month to date heating degree days 0 0  
Since 1 July heating degree days 0 0  
Cooling Degree Days 27 19  
Month to date cooling degree days 76 57  
Year to date cooling degree days 3223 2692  
Growing Degree Days 41 (Base 50)    
Moisture  
Dew Point 61 °F    
Average Humidity 41    
Maximum Humidity 59    
Minimum Humidity 23    
Precipitation  
Precipitation 0.00 in 0.09 in 2.70 in (1934)
Month to date precipitation 0.00 0.26  
Year to date precipitation 9.82 13.77  
Sea Level Pressure  
Sea Level Pressure 29.85 in    
Wind  
Wind Speed 11 mph (ESE)    
Max Wind Speed 20 mph    
Max Gust Speed 26 mph    
Visibility 10 miles    
Events      
T = Trace of Precipitation, MM = Missing Value Source: NWS Daily Summary

Daily Weather History Graph

Daily Weather History Graph

Search for Another Location

Airport or City:

Trip Planner

Search our weather history database for the weather conditions in past years. The results will help you decide how hot, cold, wet, or windy it might be!

Date:

Astronomy

Sep. 03, 2012 Rise Set
Actual Time 7:22 AM CDT 8:02 PM CDT
Civil Twilight 6:58 AM CDT 8:26 PM CDT
Nautical Twilight 6:30 AM CDT 8:55 PM CDT
Astronomical Twilight 6:01 AM CDT 9:23 PM CDT
Moon 9:44 PM CDT (9/3) 10:12 AM CDT (9/3)
Length of Visible Light 13h 28m
Length of Day
12h 40m
Waning Gibbous, 90% of the Moon is Illuminated
Sep 3
Waning Gibbous
Sep 8
Last Quarter
Sep 15
New
Sep 22
First Quarter
Sep 29
Full

Hourly Weather History & Observations

Time (CDT) Temp. Heat Index Dew Point Humidity Pressure Visibility Wind Dir Wind Speed Gust Speed Precip Events Conditions
12:53 AM 88.0 °F 88.4 °F 62.1 °F 42% 29.85 in 10.0 mi East 8.1 mph - N/A   Clear
1:53 AM 87.1 °F 87.0 °F 61.0 °F 41% 29.86 in 10.0 mi East 8.1 mph - N/A   Clear
2:53 AM 84.9 °F 85.0 °F 61.0 °F 44% 29.86 in 10.0 mi ESE 10.4 mph - N/A   Clear
3:53 AM 84.0 °F 84.5 °F 62.1 °F 47% 29.87 in 10.0 mi ESE 8.1 mph - N/A   Clear
4:53 AM 82.9 °F 83.7 °F 62.1 °F 49% 29.87 in 10.0 mi ESE 9.2 mph - N/A   Clear
5:53 AM 82.0 °F 82.7 °F 61.0 °F 49% 29.88 in 10.0 mi East 10.4 mph - N/A   Clear
6:53 AM 80.1 °F 81.2 °F 62.1 °F 54% 29.89 in 10.0 mi ESE 8.1 mph - N/A   Clear
7:53 AM 80.1 °F 81.7 °F 64.0 °F 58% 29.91 in 10.0 mi East 11.5 mph - N/A   Clear
8:53 AM 82.0 °F 84.5 °F 66.9 °F 60% 29.92 in 10.0 mi ESE 16.1 mph 23.0 mph N/A   Clear
9:53 AM 84.0 °F 87.0 °F 68.0 °F 58% 29.93 in 10.0 mi ESE 13.8 mph - N/A   Clear
10:53 AM 87.1 °F 90.6 °F 68.0 °F 53% 29.94 in 10.0 mi ESE 12.7 mph 18.4 mph N/A   Clear
11:53 AM 90.0 °F 92.8 °F 66.9 °F 46% 29.92 in 10.0 mi ESE 13.8 mph - N/A   Clear
12:53 PM 95.0 °F 97.4 °F 64.9 °F 37% 29.90 in 10.0 mi SE 15.0 mph - N/A   Clear
1:53 PM 97.0 °F 97.8 °F 62.1 °F 31% 29.87 in 10.0 mi SE 12.7 mph 24.2 mph N/A   Clear
2:53 PM 100.9 °F 102.1 °F 61.0 °F 27% 29.84 in 10.0 mi SE 13.8 mph - N/A   Clear
3:53 PM 100.9 °F 100.5 °F 57.9 °F 24% 29.81 in 10.0 mi ESE 15.0 mph 21.9 mph N/A   Clear
4:53 PM 102.0 °F 101.6 °F 57.9 °F 23% 29.78 in 10.0 mi SSE 13.8 mph - N/A   Clear
5:53 PM 102.0 °F 101.6 °F 57.9 °F 23% 29.76 in 10.0 mi SSE 15.0 mph - N/A   Clear
6:53 PM 100.9 °F 100.5 °F 57.9 °F 24% 29.76 in 10.0 mi SSE 11.5 mph - N/A   Clear
7:53 PM 98.1 °F 96.4 °F 55.9 °F 24% 29.78 in 10.0 mi SSE 11.5 mph - N/A   Clear
8:53 PM 95.0 °F 93.0 °F 55.0 °F 26% 29.79 in 10.0 mi SE 5.8 mph - N/A   Clear
9:53 PM 93.0 °F 90.8 °F 54.0 °F 27% 29.81 in 10.0 mi ESE 5.8 mph - N/A   Clear
10:53 PM 91.0 °F 88.7 °F 54.0 °F 28% 29.82 in 10.0 mi East 5.8 mph - N/A   Clear
11:53 PM 90.0 °F 87.9 °F 55.0 °F 30% 29.82 in 10.0 mi East 6.9 mph - N/A   Clear